Location: Little Arabia
(41.4620°N, 81.7687°W)
Time: 20:09:02
(UTC+00:00)

Meteor 2-16 Rocket - Pass Details

Date: 29 October 2020
Orbit: 942 x 956 km, 82.6° (Epoch: 02 December)

Event Time Altitude Azimuth Distance (km) Brightness Sun altitude
Rises 23:09:47 0° 351° (N) 3,616 7.5 -8.9°
Reaches altitude 10° 23:12:17 10° 352° (N) 2,668 6.8 -9.4°
Maximum altitude 23:18:24 89° 269° (W) 950 4.5 -10.5°
Drops below altitude 10° 23:24:29 10° 174° (S) 2,657 6.8 -11.7°
Sets 23:26:58 0° 175° (S) 3,600 7.5 -12.1°
